AirNav   Duncan Aviation - Near you to keep you flying
 
 1449 users online  

38OH Industry Air Park
Baltimore, Ohio, USA

GOING TO BALTIMORE?


FAA INFORMATION EFFECTIVE 01 DECEMBER 2022

Location

FAA Identifier: 38OH
Lat/Long: 39-50-41.2300N 082-34-46.5820W
39-50.687167N 082-34.776367W
39.8447861,-82.5796061
(estimated)
Elevation: 877 ft. / 267 m (estimated)
Variation: 05W (1985)
From city: 1 mile E of BALTIMORE, OH
Time zone: UTC -5 (UTC -4 during Daylight Saving Time)
Zip code: 43105

Airport Operations

Airport use: Private use. Permission required prior to landing
Control tower: no
ARTCC: INDIANAPOLIS CENTER
FSS: DAYTON FLIGHT SERVICE STATION
Attendance: IREG IREG
Wind indicator: yes
Segmented circle: no

Airport Communications

WX ASOS at LHQ (6 nm SW): 118.375 (740-681-1097)
WX ASOS at VTA (12 nm NE): 121.125 (740-522-1066)
WX AWOS-3 at LCK (16 nm W): PHONE 614-492-2441
WX ASOS at CMH (17 nm NW): 124.6 (614-338-4083)

Nearby radio navigation aids

VOR radial/distance  VOR name  Freq  Var
APEr185/18.4APPLETON VORTAC116.7006W
XUBr049/(26.5)YELLOW BUD VOR112.5005W
ZZVr266/32.1ZANESVILLE VOR/DME114.9506W

 
NDB name  Hdg/Dist  Freq  Var  ID
PICKL107/12.037607WLC .-.. -.-.

Airport Services

Airframe service: NONE
Powerplant service: NONE
Bottled oxygen: NONE
Bulk oxygen: NONE

Runway Information

Runway 18/36

Dimensions: 2550 x 60 ft. / 777 x 18 m
Surface: turf
Runway edge markings: CONES.
RUNWAY 18  RUNWAY 36
Traffic pattern: leftleft
Runway end identifier lights: nono
Obstructions: 12 ft. rr, 130 ft. from runway, 4:1 slope to clear20 ft. pline, 12 ft. from runway

Airport Ownership and Management from official FAA records

Ownership: Privately-owned
Owner: RON DIPAOLO
415 CANAL ROAD N.E.
BALTIMORE, OH 43105
Phone 740-862-4071
Manager: RON DIPAOLO
415 CANAL ROAD N.E.
BALTIMORE, OH 43105
Phone 740-862-4071

Airport Operational Statistics

Aircraft based on the field: 6
Single engine airplanes: 3
Ultralights: 3
    
Aircraft operations: avg 40/month *
82% local general aviation
16% transient general aviation
1% military
* for 12-month period ending 03 November 1983

Additional Remarks

RWY SOFT WHEN WET.
FOR CD CTC COLUMBUS APCH AT 614-338-8537

Instrument Procedures

There are no published instrument procedures at 38OH.

Some nearby airports with instrument procedures:

KLHQ - Fairfield County Airport (6 nm SW)
KVTA - Newark-Heath Airport (12 nm NE)
KLCK - Rickenbacker International Airport (16 nm W)
KCMH - John Glenn Columbus International Airport (17 nm NW)
I86 - Perry County Airport (20 nm SE)
 
Loc | Ops | Rwys | IFR | FBO | Links
Com | Nav | Svcs | Stats | Notes
Area around 38OH (Industry Air Park)
 
Road maps at: MapQuest Bing Google
 
Aerial photo
WARNING: Photo may not be current or correct
Aerial photo of 38OH (Industry Air Park)
Photo taken 27-Sep-2014
looking south.

Do you have a better or more recent aerial photo of Industry Air Park that you would like to share? If so, please send us your photo.

 
Sectional chart

 
Airport distance calculator
Flying to Industry Air Park? Find the distance to fly.

From to 38OH

Sunrise and sunset
Times for 08-Dec-2022
 Local
(UTC-5)
 Zulu
(UTC)
Morning civil twilight07:1012:10
Sunrise07:4012:40
Sunset17:0422:04
Evening civil twilight17:3522:35

Current date and time
Zulu (UTC)  08-Dec-2022 14:21:47
Local (UTC-5)  08-Dec-2022 09:21:47
 
METAR
KLHQ 
7nm SW 
081353Z AUTO 34004KT 7SM BKN120 06/05 A3037 RMK AO2 SLP286 T00610050
KVTA 
12nm NE 
081354Z AUTO 00000KT 5SM BR BKN024 BKN120 07/05 A3036 RMK AO2 PRESRR SLP284 T00670050
KLCK 
16nm W 
081355Z AUTO 36006KT 5SM BR BKN026 OVC120 07/05 A3036 RMK AO2 T00650050
KCMH 
17nm NW 
081351Z 36005KT 6SM BR OVC025 07/05 A3036 RMK AO2 SLP284 T00670050 $
TAF
KLCK 
16nm W 
081129Z 0812/0912 04006KT P6SM SCT015 SCT025 FM081400 04005KT P6SM BKN025 FM082000 05006KT P6SM VCSH SCT025 BKN040 FM082300 06005KT P6SM BKN050 FM090300 05004KT P6SM SCT050 SCT250
KCMH 
17nm NW 
081129Z 0812/0912 04006KT P6SM SCT015 SCT025 FM081400 04005KT P6SM BKN025 FM082000 05006KT P6SM VCSH SCT025 BKN040 FM082300 06005KT P6SM BKN050 FM090300 05004KT P6SM SCT050 SCT250
NOTAMs
Click for the latest NOTAMs
NOTAMs are issued by the DoD/FAA and will open in a separate window not controlled by AirNav.

 

 
 

Would you like to see your business listed on this page?

 If your business provides an interesting product or service to pilots, flight crews, aircraft, or users of the Industry Air Park, you should consider listing it here.  To start the listing process, click on the button below
 
Add a business
 

Other Pages about Industry Air Park

Update a link
 
Copyright © AirNav, LLC. All rights reserved. Privacy Policy  Contact